Voltar ao catálogo

TITAN 3C TRANSTAGE DEB

AtivoLEO
NORAD 3494·DEBRIS·🇺🇸 United States

Lançado Oct 15, 1965 de Cape Canaveral Space Force Station

Loading…

Próximas Passagens (próximas 24 horas)

TLE

AtualizadoSource: Space-Track

Época: Sep 14, 2026, 12:43 UTC

1 03494U 65082QQ  26257.53045988  .00000443  00000-0  77609-4 0  9999
2 03494  31.8919 321.0696 0026996 214.0401 145.8508 14.62142731218535

Acompanhe TITAN 3C TRANSTAGE DEB em tempo real com AllMySat

Download on the App Store